Regional Weather Roundup
Issued by NWS Albany, NY

Home | Current Version | Previous Version | Text Only | Print | Product List | Glossary On
Versions: 1 2 3 4 5 6 7 8 9 10 11 12 13 14 15 16 17 18 19 20 21 22 23 24 25 26 27 28
000
ASUS41 KALY 240110
RWRALY

NEW YORK STATE HOURLY WEATHER ROUNDUP
NATIONAL WEATHER SERVICE ALBANY NY
800 PM EST TUE JAN 23 2018

NOTE: "FAIR" INDICATES FEW OR NO CLOUDS BELOW 12,000 FEET WITH NO
SIGNIFICANT WEATHER AND/OR NO OBSTRUCTIONS TO VISIBILITY.

NYZ032-033-038>043-046>054-057>066-NYZ062>081-082-084-240200-
EAST


CITY           SKY/WX    TMP DP  RH WIND       PRES   REMARKS
ALBANY         MOCLDY    39  33  79 NW8       29.62R WCI  33
GLENS FALLS    FAIR      36  34  92 SW6       29.58R WCI  31
POUGHKEEPSIE   FAIR      40  37  89 SW8       29.62R FOG     WCI  34
NEWBURGH       PTCLDY    45  39  81 W12       29.63R
MONTGOMERY     MOCLDY    46  35  65 W8        29.63R
WHITE PLAINS   FAIR      47  36  65 W13G20    29.63R
ISLIP          MOCLDY    49  40  71 W8        29.64R
NEW YORK CITY  FAIR      50  33  52 W17G31    29.66R
CENTRAL PARK   FAIR      50  31  48 W20G32    29.69R
$$

NYZ005>009-017-018-044>046-055-056-240200-
CENTRAL


CITY           SKY/WX    TMP DP  RH WIND       PRES   REMARKS
FULTON         LGT RAIN  39  32  76 SW23G30   29.61R WCI  28
SYRACUSE       CLOUDY    39  32  76 SW12      29.62R WCI  32
ROME           CLOUDY    38  32  79 W7        29.63R WCI  33
ELMIRA         CLOUDY    38  31  76 SW7       29.65R WCI  33
BINGHAMTON     MOCLDY    36  27  69 W10       29.62R WCI  28
MONTICELLO     MOCLDY    38  31  76 W7        29.65R WCI  33
$$

NYZ026>034-041>043-087-240200-
NORTH


CITY           SKY/WX    TMP DP  RH WIND       PRES   REMARKS
WATERTOWN      LGT RAIN  37  35  92 SW16G23   29.55S WCI  28
FORT DRUM      NOT AVBL
OGDENSBURG     CLOUDY    38  34  85 SW14      29.51R WCI  30
MASSENA        CLOUDY    38  35  89 SW21G30   29.50R WCI  28
SARANAC LAKE   CLOUDY    34  33  96 SW9       29.48R WCI  27
PLATTSBURGH    CLOUDY    40  34  79 CALM      29.46R
$$

NYZ001>004-010>016-019>021-085-240200-
WEST


CITY           SKY/WX    TMP DP  RH WIND       PRES   REMARKS
NIAGARA FALLS  LGT RAIN  37  31  78 W24G32    29.65R WCI  26
BUFFALO        FLURRIES  34  31  88 SW31G47   29.65R WCI  20
DUNKIRK        LGT SNOW  33  30  88 SW28G40   29.73R FOG     WCI  20
JAMESTOWN      LGT SNOW  31  28  89 W22G35    29.71R FOG     WCI  18
WELLSVILLE     LGT SNOW  35  30  82 W15G25    29.64R WCI  25
ROCHESTER      FLURRIES  38  32  79 W28G39    29.62R WCI  26
PENN YAN       CLOUDY   N/A N/A N/A SW13      29.63R
$$

             KEY
       WCI = WIND CHILL INDEX
       VSB = VISIBILITY
       HX  = HEAT INDEX
$$




USA.gov is the U.S. government's official web portal to all federal, state and local government web resources and services.